Date String (YYYY-MM-DD hh:mm:ss) UTC,Instrument flags,absolute air pressure of the measurement (hPa),sample flow rate (lpm),inlet stack bypass flow (lpm),air temperature of the measurement (°C),ambient temperature measured by the external sensor (°C),aerosol sample conditioner tube jacket temperature (°C),OPC LED temperature (°C),internal box temperature (°C),relative humidity of the measurement (%),span deviation,mass concentration of particles derived from Lorenz-Mie calculation of OPC scattering (μg/m³),mass concentration of particles derived from Lorenz-Mie calculation of OPC scattering (μg/m³),mass concentration of particles derived from Lorenz-Mie calculation of OPC scattering (μg/m³)
DateTimeUTC,F1_M11,P_M11,Q1_M11,Q2_M11,T1_M11,T2_M11,T3_M11,T4_M11,T5_M11,U1_M11,ZSPAN_M11,X2_M11,X0_M11,X1_M11
2024-05-19 10:00:00,SystemResetWarning,0825.9,4.99,000.00,024.6,022.3,000.0,033.5,025.7,024.6,0000.0,0004.00,0009.25,0003.23
2024-05-19 10:01:00,SystemResetWarning,0825.9,5.00,000.00,024.6,022.6,000.0,033.3,026.0,024.7,0000.0,0004.01,0009.39,0003.25
2024-05-19 10:02:00,SystemResetWarning,0825.9,5.02,000.00,024.7,023.0,000.0,033.3,026.2,024.8,0000.0,0004.03,0009.55,0003.27
2024-05-19 10:03:00,SystemResetWarning,0825.9,5.00,000.00,024.7,023.2,000.0,033.2,026.3,024.9,0000.0,0004.07,0010.08,0003.29
2024-05-19 10:04:00,SystemResetWarning,0825.9,5.00,000.00,024.7,023.5,000.0,033.2,026.4,024.8,0000.0,0004.08,0010.11,0003.30
2024-05-19 10:05:00,SystemResetWarning,0825.9,5.00,000.00,024.7,023.6,000.0,033.2,026.5,024.7,0000.0,0004.08,0010.16,0003.32
2024-05-19 10:06:00,SystemResetWarning,0825.9,4.99,000.00,024.8,023.8,000.0,033.2,026.6,024.7,0000.0,0004.07,0010.12,0003.31
2024-05-19 10:07:00,SystemResetWarning,0825.9,5.00,000.00,024.8,023.9,000.0,033.1,026.6,024.6,0000.0,0004.07,0010.25,0003.32
2024-05-19 10:08:00,SystemResetWarning,0825.9,5.00,000.00,024.9,024.1,000.0,033.1,026.7,024.6,0000.0,0004.09,0010.30,0003.33
2024-05-19 10:09:00,SystemResetWarning,0825.8,4.99,000.00,024.9,024.2,000.0,033.1,026.7,024.5,0000.0,0004.08,0010.01,0003.33
2024-05-19 10:10:00,SystemResetWarning,0825.9,5.00,000.00,024.9,024.2,000.0,033.1,026.8,024.5,0000.0,0004.08,0009.92,0003.34
2024-05-19 10:11:00,SystemResetWarning,0825.9,5.00,000.00,025.0,024.3,000.0,033.2,026.8,024.4,0000.0,0004.06,0010.12,0003.33
2024-05-19 10:12:00,SystemResetWarning,0825.9,5.01,000.00,025.0,024.4,000.0,033.2,026.8,024.4,0000.0,0004.04,0010.02,0003.32
2024-05-19 10:13:00,SystemResetWarning,0825.9,5.00,000.00,025.1,024.4,000.0,033.2,026.9,024.3,0000.0,0004.04,0010.07,0003.31
2024-05-19 10:14:00,SystemResetWarning,0825.9,5.01,000.00,025.1,024.5,000.0,033.2,026.9,024.1,0000.0,0004.03,0009.48,0003.30
2024-05-19 10:15:00,SystemResetWarning,0825.8,5.00,000.00,025.1,024.6,000.0,033.2,027.0,024.0,0000.0,0004.02,0009.55,0003.30
2024-05-19 10:16:00,SystemResetWarning,0825.9,5.00,000.00,025.2,024.6,000.0,033.2,027.0,023.9,0000.0,0003.99,0009.55,0003.30
2024-05-19 10:17:00,SystemResetWarning,0825.8,5.00,000.00,025.2,024.6,000.0,033.3,027.1,023.8,0000.0,0003.99,0010.68,0003.28
2024-05-19 10:18:00,SystemResetWarning,0825.9,5.00,000.00,025.2,024.7,000.0,033.3,027.1,023.5,0000.0,0003.98,0010.87,0003.28
2024-05-19 10:19:00,SystemResetWarning,0825.9,5.00,000.00,025.3,024.7,000.0,033.3,027.1,023.4,0000.0,0003.96,0010.97,0003.28
2024-05-19 10:20:00,SystemResetWarning,0825.9,5.00,000.00,025.3,024.8,000.0,033.4,027.2,023.4,0000.0,0003.95,0011.26,0003.27
2024-05-19 10:21:00,SystemResetWarning,0825.9,5.00,000.00,025.3,024.8,000.0,033.4,027.2,023.4,0000.0,0003.93,0011.04,0003.26
2024-05-19 10:22:00,SystemResetWarning,0825.9,5.00,000.00,025.4,024.8,000.0,033.4,027.2,023.5,0000.0,0003.93,0011.25,0003.26
2024-05-19 10:23:00,SystemResetWarning,0825.9,5.00,000.00,025.4,024.8,000.0,033.4,027.2,023.5,0000.0,0003.93,0011.40,0003.26
2024-05-19 10:24:00,SystemResetWarning,0825.9,5.01,000.00,025.4,024.9,000.0,033.5,027.3,023.5,0000.0,0003.94,0011.06,0003.27
2024-05-19 10:25:00,SystemResetWarning,0825.9,4.99,000.00,025.5,024.9,000.0,033.5,027.3,023.2,0000.0,0003.96,0010.83,0003.26
2024-05-19 10:26:00,SystemResetWarning,0825.8,5.00,000.00,025.5,024.9,000.0,033.5,027.3,023.2,0000.0,0003.94,0011.01,0003.25
2024-05-19 10:27:00,SystemResetWarning,0825.8,4.99,000.00,025.5,024.9,000.0,033.5,027.3,023.2,0000.0,0003.94,0011.15,0003.25
2024-05-19 10:28:00,SystemResetWarning,0825.8,4.99,000.00,025.5,024.9,000.0,033.6,027.4,023.1,0000.0,0003.99,0010.29,0003.26
2024-05-19 10:29:00,SystemResetWarning,0825.8,5.00,000.00,025.5,025.0,000.0,033.6,027.4,023.2,0000.0,0004.01,0010.00,0003.26
2024-05-19 10:30:00,SystemResetWarning,0825.8,5.00,000.00,025.4,023.6,000.0,033.6,026.6,023.4,0000.0,0004.04,0009.85,0003.26
2024-05-19 10:31:00,SystemResetWarning,0825.7,5.01,000.00,025.0,021.9,000.0,033.7,025.6,024.0,0000.0,0004.06,0009.50,0003.27
2024-05-19 10:32:00,SystemResetWarning,0825.7,5.01,000.00,024.7,021.8,000.0,033.6,025.5,024.3,0000.0,0004.03,0009.89,0003.28
2024-05-19 10:33:00,SystemResetWarning,0825.7,5.00,000.00,024.6,022.2,000.0,033.4,025.6,024.5,0000.0,0004.01,0010.21,0003.28
2024-05-19 10:34:00,SystemResetWarning,0825.7,4.98,000.00,024.6,022.5,000.0,033.3,025.9,024.5,0000.0,0004.04,0010.49,0003.28
2024-05-19 10:35:00,SystemResetWarning,0825.8,5.01,000.00,024.6,022.9,000.0,033.2,026.1,024.1,0000.0,0004.04,0010.50,0003.29
2024-05-19 10:36:00,SystemResetWarning,0825.8,5.01,000.00,024.6,023.1,000.0,033.2,026.2,023.9,0000.0,0004.04,0010.41,0003.29
2024-05-19 10:37:00,SystemResetWarning,0825.8,4.98,000.00,024.7,023.4,000.0,033.1,026.3,024.0,0000.0,0004.07,0010.24,0003.28
2024-05-19 10:38:00,SystemResetWarning,0825.8,5.01,000.00,024.7,023.6,000.0,033.1,026.4,024.0,0000.0,0004.04,0010.25,0003.27
2024-05-19 10:39:00,SystemResetWarning,0825.8,5.01,000.00,024.7,023.7,000.0,033.1,026.5,023.8,0000.0,0003.95,0009.85,0003.24
2024-05-19 10:40:00,SystemResetWarning,0825.8,5.00,000.00,024.8,023.9,000.0,033.1,026.6,023.8,0000.0,0003.87,0009.71,0003.19
2024-05-19 10:41:00,SystemResetWarning,0825.9,4.99,000.00,024.8,024.0,000.0,033.1,026.6,023.8,0000.0,0003.80,0009.56,0003.15
2024-05-19 10:42:00,SystemResetWarning,0825.9,4.99,000.00,024.9,024.1,000.0,033.1,026.7,023.7,0000.0,0003.73,0009.43,0003.09
2024-05-19 10:43:00,SystemResetWarning,0825.9,5.00,000.00,024.9,024.2,000.0,033.1,026.7,023.8,0000.0,0003.68,0009.08,0003.00
2024-05-19 10:44:00,SystemResetWarning,0825.9,5.01,000.00,024.9,024.3,000.0,033.1,026.7,023.9,0000.0,0003.65,0008.24,0002.91
2024-05-19 10:45:00,SystemResetWarning,0825.9,5.01,000.00,025.0,024.3,000.0,033.1,026.8,024.0,0000.0,0003.56,0007.68,0002.81
2024-05-19 10:46:00,SystemResetWarning,0825.9,4.99,000.00,025.0,024.4,000.0,033.2,026.8,024.0,0000.0,0003.50,0007.70,0002.72
2024-05-19 10:47:00,SystemResetWarning,0825.9,4.99,000.00,025.1,024.4,000.0,033.2,026.9,023.8,0000.0,0003.44,0008.35,0002.63
2024-05-19 10:48:00,SystemResetWarning,0825.9,4.99,000.00,025.1,024.5,000.0,033.2,026.9,023.1,0000.0,0003.36,0008.07,0002.56
2024-05-19 10:49:00,SystemResetWarning,0825.9,5.00,000.00,025.1,024.5,000.0,033.2,027.0,022.8,0000.0,0003.33,0007.82,0002.47
2024-05-19 10:50:00,SystemResetWarning,0825.9,5.01,000.00,025.1,024.6,000.0,033.2,027.0,022.8,0000.0,0003.28,0007.75,0002.38
2024-05-19 10:51:00,SystemResetWarning,0825.8,5.01,000.00,025.2,024.6,000.0,033.2,027.0,022.8,0000.0,0003.24,0007.73,0002.33
2024-05-19 10:52:00,SystemResetWarning,0825.8,5.00,000.00,025.2,024.6,000.0,033.3,027.0,022.6,0000.0,0003.21,0008.01,0002.28
2024-05-19 10:53:00,SystemResetWarning,0825.8,4.99,000.00,025.2,024.7,000.0,033.3,027.1,022.5,0000.0,0003.18,0008.14,0002.24
2024-05-19 10:54:00,SystemResetWarning,0825.7,5.00,000.00,025.3,024.7,000.0,033.3,027.1,022.4,0000.0,0003.18,0008.14,0002.19
2024-05-19 10:55:00,SystemResetWarning,0825.7,5.00,000.00,025.3,024.7,000.0,033.3,027.1,022.3,0000.0,0003.14,0008.28,0002.15
2024-05-19 10:56:00,SystemResetWarning,0825.7,5.00,000.00,025.3,024.7,000.0,033.4,027.1,022.3,0000.0,0003.11,0008.43,0002.10
2024-05-19 10:57:00,SystemResetWarning,0825.7,5.01,000.00,025.3,024.7,000.0,033.4,027.1,022.4,0000.0,0003.06,0008.23,0002.07
2024-05-19 10:58:00,SystemResetWarning,0825.7,5.00,000.00,025.4,024.8,000.0,033.4,027.2,022.3,0000.0,0003.04,0007.49,0002.04
2024-05-19 10:59:00,SystemResetWarning,0825.6,5.01,000.00,025.4,024.8,000.0,033.4,027.2,022.3,0000.0,0003.06,0007.42,0002.02
